• In Uzbekistan
  • List of Countries
  • For 7 days
  • Water Temperature
  • Weather Map
  • Weather Widgets
  • user-avatar
    Login

    Hourly Weather Namangan

    Today, 3 April, Friday

    Time Temperature Precipitation Wind Pressure Humidity
    00:00 +15°C° 0 mm 2 mps 725 mmHg 49%
    01:00 +15°C° 0 mm 2 mps 725 mmHg 50%
    02:00 +14°C° 0 mm 2 mps 725 mmHg 51%
    03:00 +14°C° 0 mm 2 mps 725 mmHg 50%
    04:00 +14°C° 0 mm 2 mps 725 mmHg 49%
    05:00 +13°C° 0 mm 2 mps 725 mmHg 48%
    06:00 +15°C° 0 mm 2 mps 725 mmHg 43%
    07:00 +16°C° 0 mm 2 mps 725 mmHg 38%
    08:00 +17°C° 0 mm 2 mps 725 mmHg 34%
    09:00 +19°C° 0 mm 2 mps 725 mmHg 30%
    10:00 +20°C° 0 mm 2 mps 725 mmHg 27%
    11:00 +23°C° 0 mm 2 mps 725 mmHg 23%
    12:00 +24°C° 0 mm 1 mps 725 mmHg 21%
    13:00 +25°C° 0 mm 1 mps 725 mmHg 19%
    14:00 +26°C° 0 mm 1 mps 725 mmHg 17%
    15:00 +26°C° 0 mm 1 mps 725 mmHg 17%
    16:00 +26°C° 0 mm 1 mps 725 mmHg 16%
    17:00 +26°C° 0 mm 1 mps 725 mmHg 16%
    18:00 +25°C° 0 mm 1 mps 725 mmHg 18%
    19:00 +23°C° 0 mm 1 mps 726 mmHg 20%
    20:00 +20°C° 0 mm 0 mps 726 mmHg 22%
    21:00 +22°C° 0 mm 1 mps 726 mmHg 23%
    22:00 +21°C° 0 mm 1 mps 726 mmHg 24%
    23:00 +20°C° 0 mm 1 mps 726 mmHg 25%

    Tomorrow, 4 April, Saturday

    Time Temperature Precipitation Wind Pressure Humidity
    00:00 +19°C° 0 mm 2 mps 726 mmHg 28%
    01:00 +18°C° 0 mm 2 mps 725 mmHg 31%
    02:00 +17°C° 0 mm 2 mps 725 mmHg 33%
    03:00 +17°C° 0 mm 2 mps 725 mmHg 34%
    04:00 +16°C° 0 mm 2 mps 725 mmHg 35%
    05:00 +16°C° 0 mm 2 mps 725 mmHg 36%
    06:00 +17°C° 0 mm 2 mps 725 mmHg 34%
    07:00 +18°C° 0 mm 2 mps 725 mmHg 31%
    08:00 +20°C° 0 mm 2 mps 725 mmHg 28%
    09:00 +21°C° 0 mm 2 mps 725 mmHg 25%
    10:00 +24°C° 0 mm 2 mps 725 mmHg 21%
    11:00 +26°C° 0 mm 2 mps 725 mmHg 18%
    12:00 +27°C° 0 mm 2 mps 725 mmHg 16%
    13:00 +28°C° 0 mm 2 mps 724 mmHg 15%
    14:00 +29°C° 0 mm 1 mps 724 mmHg 14%
    15:00 +29°C° 0 mm 1 mps 724 mmHg 14%
    16:00 +29°C° 0 mm 1 mps 724 mmHg 13%
    17:00 +29°C° 0 mm 1 mps 723 mmHg 13%
    18:00 +27°C° 0 mm 1 mps 723 mmHg 15%
    19:00 +24°C° 0 mm 0 mps 723 mmHg 18%
    20:00 +22°C° 0 mm 0 mps 723 mmHg 20%
    21:00 +23°C° 0 mm 1 mps 723 mmHg 22%
    22:00 +23°C° 0 mm 1 mps 723 mmHg 24%
    23:00 +21°C° 0 mm 2 mps 723 mmHg 26%

    Day after tomorrow, 5 April, Sunday

    Time Temperature Precipitation Wind Pressure Humidity
    00:00 +20°C° 0 mm 2 mps 723 mmHg 28%
    01:00 +20°C° 0 mm 2 mps 722 mmHg 30%
    02:00 +19°C° 0 mm 2 mps 722 mmHg 32%
    03:00 +18°C° 0 mm 2 mps 722 mmHg 34%
    04:00 +18°C° 0 mm 2 mps 723 mmHg 35%
    05:00 +17°C° 0 mm 2 mps 723 mmHg 36%
    06:00 +18°C° 0 mm 2 mps 723 mmHg 39%
    07:00 +18°C° 0 mm 2 mps 723 mmHg 41%
    08:00 +19°C° 0 mm 2 mps 724 mmHg 44%
    09:00 +20°C° 0 mm 2 mps 724 mmHg 41%
    10:00 +21°C° 0 mm 2 mps 724 mmHg 38%
    11:00 +22°C° 0 mm 3 mps 725 mmHg 35%
    12:00 +24°C° 0 mm 2 mps 725 mmHg 34%
    13:00 +24°C° 0 mm 2 mps 725 mmHg 32%
    14:00 +25°C° 0 mm 2 mps 725 mmHg 30%
    15:00 +25°C° 0 mm 2 mps 725 mmHg 29%
    16:00 +25°C° 0 mm 2 mps 725 mmHg 28%
    17:00 +26°C° 0 mm 2 mps 724 mmHg 28%
    18:00 +24°C° 0 mm 2 mps 725 mmHg 32%
    19:00 +23°C° 0 mm 2 mps 725 mmHg 37%
    20:00 +21°C° 0 mm 2 mps 725 mmHg 41%
    21:00 +20°C° 0.1 mm 2 mps 725 mmHg 44%
    22:00 +21°C° 0.1 mm 1 mps 725 mmHg 47%
    23:00 +20°C° 0.1 mm 1 mps 725 mmHg 50%

    6 April, Monday

    Time Temperature Precipitation Wind Pressure Humidity
    00:00 +19°C° 0 mm 2 mps 724 mmHg 51%
    01:00 +19°C° 0 mm 2 mps 724 mmHg 52%
    02:00 +18°C° 0 mm 2 mps 724 mmHg 53%
    03:00 +18°C° 0 mm 2 mps 723 mmHg 55%
    04:00 +18°C° 0 mm 1 mps 723 mmHg 57%
    05:00 +16°C° 0 mm 1 mps 723 mmHg 59%
    06:00 +18°C° 0 mm 1 mps 723 mmHg 56%
    07:00 +19°C° 0 mm 1 mps 723 mmHg 52%
    08:00 +20°C° 0 mm 1 mps 723 mmHg 48%
    09:00 +22°C° 0 mm 1 mps 723 mmHg 43%
    10:00 +23°C° 0 mm 1 mps 723 mmHg 39%
    11:00 +25°C° 0 mm 1 mps 723 mmHg 35%
    12:00 +26°C° 0 mm 1 mps 723 mmHg 31%
    13:00 +27°C° 0 mm 1 mps 723 mmHg 27%
    14:00 +28°C° 0 mm 1 mps 722 mmHg 24%
    15:00 +28°C° 0 mm 1 mps 722 mmHg 23%
    16:00 +28°C° 0 mm 1 mps 722 mmHg 22%
    17:00 +28°C° 0 mm 1 mps 722 mmHg 21%
    18:00 +27°C° 0 mm 1 mps 722 mmHg 23%
    19:00 +25°C° 0 mm 1 mps 722 mmHg 26%
    20:00 +22°C° 0 mm 0 mps 722 mmHg 28%
    21:00 +24°C° 0 mm 1 mps 722 mmHg 29%
    22:00 +23°C° 0 mm 1 mps 722 mmHg 30%
    23:00 +22°C° 0 mm 1 mps 721 mmHg 31%

    7 April, Tuesday

    Time Temperature Precipitation Wind Pressure Humidity
    00:00 +22°C° 0 mm 1 mps 721 mmHg 33%
    01:00 +21°C° 0 mm 1 mps 721 mmHg 35%
    02:00 +20°C° 0 mm 1 mps 721 mmHg 36%
    03:00 +20°C° 0 mm 1 mps 721 mmHg 38%
    04:00 +19°C° 0 mm 1 mps 721 mmHg 40%
    05:00 +19°C° 0 mm 1 mps 721 mmHg 42%
    06:00 +20°C° 0 mm 1 mps 721 mmHg 39%
    07:00 +21°C° 0 mm 1 mps 721 mmHg 36%
    08:00 +22°C° 0 mm 1 mps 722 mmHg 33%
    09:00 +24°C° 0 mm 1 mps 722 mmHg 30%
    10:00 +25°C° 0 mm 1 mps 722 mmHg 27%
    11:00 +27°C° 0 mm 1 mps 722 mmHg 25%
    12:00 +28°C° 0 mm 2 mps 722 mmHg 23%
    13:00 +29°C° 0 mm 2 mps 721 mmHg 22%
    14:00 +29°C° 0 mm 2 mps 721 mmHg 20%
    15:00 +29°C° 0 mm 3 mps 721 mmHg 20%
    16:00 +29°C° 0 mm 4 mps 721 mmHg 20%
    17:00 +29°C° 0 mm 4 mps 721 mmHg 21%
    18:00 +27°C° 0 mm 6 mps 721 mmHg 27%
    19:00 +23°C° 0 mm 7 mps 721 mmHg 34%
    20:00 +21°C° 0 mm 9 mps 722 mmHg 41%
    21:00 +20°C° 0.1 mm 8 mps 722 mmHg 44%
    22:00 +18°C° 0.1 mm 7 mps 722 mmHg 47%
    23:00 +18°C° 0.1 mm 7 mps 722 mmHg 49%

    8 April, Wednesday

    Time Temperature Precipitation Wind Pressure Humidity
    00:00 +17°C° 0.9 mm 6 mps 722 mmHg 57%
    01:00 +15°C° 0.9 mm 5 mps 721 mmHg 64%
    02:00 +14°C° 0.9 mm 4 mps 721 mmHg 72%
    03:00 +14°C° 0.5 mm 4 mps 721 mmHg 71%
    04:00 +13°C° 0.5 mm 4 mps 722 mmHg 71%
    05:00 +13°C° 0.5 mm 3 mps 722 mmHg 71%
    06:00 +13°C° 0.4 mm 4 mps 722 mmHg 69%
    07:00 +13°C° 0.4 mm 5 mps 723 mmHg 67%
    08:00 +12°C° 0.4 mm 5 mps 723 mmHg 66%
    09:00 +12°C° 0.1 mm 5 mps 723 mmHg 62%
    10:00 +11°C° 0.1 mm 6 mps 723 mmHg 58%
    11:00 +11°C° 0.1 mm 6 mps 723 mmHg 53%
    12:00 +12°C° 0.4 mm 5 mps 723 mmHg 57%
    13:00 +11°C° 0.4 mm 4 mps 723 mmHg 60%
    14:00 +11°C° 0.4 mm 3 mps 723 mmHg 63%
    15:00 +10°C° 0.7 mm 4 mps 724 mmHg 67%
    16:00 +8°C° 0.7 mm 4 mps 724 mmHg 71%
    17:00 +7°C° 0.7 mm 4 mps 724 mmHg 75%
    18:00 +7°C° 0.6 mm 4 mps 724 mmHg 76%
    19:00 +6°C° 0.6 mm 5 mps 725 mmHg 76%
    20:00 +6°C° 0.6 mm 5 mps 725 mmHg 77%
    21:00 +6°C° 0.8 mm 5 mps 726 mmHg 76%
    22:00 +6°C° 0.8 mm 4 mps 726 mmHg 76%
    23:00 +6°C° 0.8 mm 4 mps 727 mmHg 75%
    Show more